NOAA NWS Hourly Roundups by Site

Regional Weather Roundup for State College, PA

To Select Another Site Choose from List

Select Site:  

000
ASUS41 KCTP 282210
RWRCTP

REGIONAL WEATHER ROUNDUP
NATIONAL WEATHER SERVICE STATE COLLEGE PA
600 PM EDT WED SEP 28 2022

Note: "fair" indicates few or no clouds below 12,000 feet with no
significant weather and/or obstructions to visibility.

* = STATION THAT DOES NOT REPORT PRECIPITATION /E.G. RAIN...SNOW...ETC/
    THUNDER OR FOG.

PAZ002>004-007>009-013>016-020>023-029>032-282300-
WESTERN PENNSYLVANIA

CITY           SKY/WX    TMP DP  RH WIND       PRES   REMARKS
ERIE           CLOUDY    58  48  69 N9        30.31R
MEADVILLE      CLOUDY    55  48  77 N9        30.31R
FRANKLIN       PTSUNNY   55  49  80 VRB6      30.31R
NEW CASTLE     CLOUDY    56  52  86 NW6         N/A
BEAVER COUNTY    N/A     58  51  77 NW3       30.32R
BUTLER         PTSUNNY   58  50  75 NW8       30.31R
PITTSBURGH INT PTSUNNY   54  48  80 NW10      30.30R
PITTSBURGH     LGT RAIN  55  51  86 W6        30.30S
INDIANA*       CLOUDY    57  50  77 W5        30.32R
LATROBE        LGT RAIN  55  54  94 MISG      30.31R
WASHINGTON CO* LGT RAIN  55  51  86 NW3       30.35R
$$

PAZ004>006-010>012-017>019-024>028-033>037-041-042-045-046-049>053-282300-
CENTRAL PENNSYLVANIA

CITY           SKY/WX    TMP DP  RH WIND       PRES   REMARKS
BRADFORD       PTSUNNY   53  47  79 N8        30.28R
ST MARYS       NOT AVBL
DUBOIS         CLOUDY    58  47  66 NW6       30.26R
CLEARFIELD     PTSUNNY   57  48  72 W7        30.26R
JOHNSTOWN      CLOUDY    53  47  79 W10       30.28R
SOMERSET       DRIZZLE   50  45  81 NW7       30.30R
ALTOONA        CLOUDY    56  48  74 W8        30.26R
STATE COLLEGE  LGT RAIN  55  52  88 NW5       30.25R
REEDSVILLE     MOCLDY    63  50  63 NW7       30.22R
WELLSBORO      CLOUDY    54  50  87 NW7G14    30.25R
WILLIAMSPORT   LGT RAIN  61  52  72 NW5       30.21R
SELINSGROVE    CLOUDY    63  50  62 N6        30.21R
FT INDIANTOWN  PTCLDY    65  45  48 NW6       30.18R
CAPITAL CITY   PTCLDY    69  47  45 N7        30.19R
HARRISBURG     PTCLDY    66  47  50 N6        30.19R
YORK           MOCLDY    65  47  52 W3        30.20R
$$

PAZ038>040-043-044-047-048-054-055-060>062-067>071-282300-
EASTERN PENNSYLVANIA

CITY           SKY/WX    TMP DP  RH WIND       PRES   REMARKS
TOWANDA        CLEAR     59  50  72 N6        30.26R
SCRANTON       CLOUDY    60  52  74 N5        30.21R
MOUNT POCONO   CLOUDY    54  50  86 NW10      30.20R
HAZLETON       CLOUDY    54  50  87 CALM      30.24R
LEHIGHTON      MOCLDY    63  48  59 N7        30.20R
ALLENTOWN      CLOUDY    64  49  57 NW9       30.17R
QN CITY/ALNTWN CLOUDY    64  50  59 NW7       30.19R
QUAKERTOWN*    CLOUDY    66  50  55 VRB5G12   30.17R
PERKASIE*      CLOUDY    64  50  59 W3        30.18R
DOYLESTOWN     CLOUDY    67  47  48 NW6       30.16R
READING        CLOUDY    68  49  50 NW9G20    30.17R
LANCASTER      PTCLDY    66  48  52 NW13      30.19R
COATESVILLE    PTCLDY    64  48  55 NW6       30.20R
WEST CHESTER   NOT AVBL
POTTSTOWN      PTCLDY    65  47  52 NW7       30.19R
BLUE BELL      PTCLDY    66  49  53 CALM      30.17R
NORTH PHILA    PTCLDY    69  48  47 N8        30.17R
PHILADELPHIA   PTCLDY    70  47  43 NW8G17    30.16S
$$


 

View Past Reports for State College, PA.

Products Courtesy of NOAA-NWS
NWS Information Parsing Script by Ken True at Saratoga Weather - Script by SE Lincoln Weather.